[[{"header":{"parameterUnit":"m.s-1","parameterCategory":1,"la1":30.2991,"la2":30.254,"lo1":-89.0895,"lo2":-89.0444,"dy":0.0017,"dx":0.0017,"nx":28,"ny":28,"refTime":"2025-04-07T09:00:00:Z","depth":0,"parameterNumber":2,"parameterNumberName":"U-component_of_WINDS"},"data":[0,0,0,0,0,0,0,0,0,0,0,0,0,0,0,0,0,0,0,0,0,0,0,0,0,0,0,0,0,0,0,0,0,0,0,0,0,0,0,0,0,0,0,0,0,0,0,0,0,0,0,0,0,0,0,0,0,0,1.4697,1.4695,0,1.4563,1.4561,1.456,1.45,1.4501,1.4501,1.4501,1.4362,1.4359,1.4355,0,0,0,0,0,0,0,0,0,0,0,0,0,1.49,1.4897,1.4697,1.4695,1.4694,1.4563,1.4561,1.4559,1.45,1.4501,1.4501,1.4501,1.4364,1.4359,1.4354,0,0,0,0,0,0,0,0,0,0,0,0,0,1.4794,1.4896,1.4697,1.4649,1.4643,1.4563,1.4561,1.4559,1.45,1.4501,1.4501,1.4501,1.4365,1.4359,1.4354,1.4312,0,0,1.4336,1.4334,0,0,0,0,0,0,0,0,1.48,1.4786,1.4657,1.4652,1.4645,1.4549,1.4582,1.4476,1.45,1.4554,1.4501,1.4501,1.4424,1.4413,1.4388,1.4306,1.43,1.4336,1.4332,1.433,1.4328,0,0,0,0,0,0,0,1.4807,1.4792,1.4644,1.4656,1.4648,1.4633,1.4618,1.4562,1.4489,1.455,1.4545,1.453,1.4421,1.4393,1.4384,1.4298,1.4336,1.4331,1.4327,1.4325,1.4175,1.4174,0,0,0,0,0,0,1.4823,1.4798,1.4648,1.464,1.4725,1.4629,1.4612,1.4579,1.449,1.4476,1.453,1.4528,1.4403,1.4391,1.4379,1.4323,1.433,1.4324,1.4321,1.4175,1.4174,1.4174,0,0,0,0,0,0,1.4827,1.481,1.4653,1.4718,1.4697,1.4625,1.4589,1.4577,1.4549,1.4475,1.4461,1.4515,1.4403,1.4387,1.4329,1.4318,1.4322,1.4316,1.4176,1.4175,1.4174,1.4213,0,0,0,0,0,0,1.4834,1.4812,1.4796,1.4718,1.4693,1.4607,1.4588,1.4574,1.4539,1.4535,1.4458,1.4445,1.4402,1.4338,1.4323,1.431,1.4312,1.4176,1.4175,1.4174,1.4213,1.4214,1.4215,0,0,0,0,0,1.4841,1.4812,1.4796,1.4778,1.4672,1.4606,1.4592,1.4543,1.4539,1.4522,1.4474,1.4447,1.4322,1.4333,1.4316,1.43,1.4177,1.4176,1.4174,1.4212,1.4214,1.4215,0,0,0,0,0,0,1.4891,1.4801,1.4782,1.4727,1.4675,1.4596,1.4573,1.4547,1.4495,1.4493,1.4434,1.4417,1.4364,1.4327,1.434,1.4255,1.4247,1.4242,1.4282,1.4282,1.4284,1.4293,1.4307,0,0,0,0,0,1.4896,1.485,1.4774,1.4733,1.4708,1.4646,1.4615,1.4582,1.4525,1.4503,1.4451,1.4396,1.4344,1.4312,1.426,1.4207,1.4189,1.4188,1.419,1.4191,1.4187,1.4156,1.4154,1.417,1.417,1.417,0,0,1.4905,1.485,1.4825,1.4742,1.4698,1.4651,1.4627,1.4579,1.4544,1.4495,1.4437,1.4398,1.4333,1.4278,1.425,1.4244,1.4179,1.419,1.4191,1.4187,1.4155,1.4153,1.4152,1.4169,1.4169,1.417,0,0,1.4897,1.4852,1.4812,1.4769,1.4702,1.466,1.4651,1.4576,1.4548,1.4489,1.4451,1.4408,1.432,1.4276,1.4241,1.4217,1.419,1.4202,1.4208,1.4178,1.4176,1.4175,1.4165,1.4162,1.4199,1.4199,1.4199,0,1.4917,1.4846,1.4795,1.4749,1.4713,1.4668,1.4626,1.4586,1.4506,1.4482,1.4476,1.4365,1.4318,1.4251,1.4245,1.4219,1.4206,1.421,1.4181,1.4179,1.4177,1.4167,1.4163,1.42,1.42,1.42,1.42,0,1.4873,1.4824,1.48,1.4724,1.4685,1.4642,1.4584,1.4551,1.4522,1.4481,1.4421,1.4363,1.4299,1.4281,1.4251,1.4209,1.4207,1.4192,1.4183,1.4178,1.4167,1.4163,1.4203,1.4202,1.4202,1.4201,0,0,1.4893,1.4789,1.4781,1.4745,1.4668,1.4629,1.4583,1.452,1.4493,1.4439,1.4399,1.4325,1.4311,1.4272,1.4237,1.4211,1.4194,1.4199,1.4196,1.4199,1.4143,1.4154,1.415,1.4176,1.4175,1.4175,1.4148,0,1.4874,1.4791,1.4744,1.4679,1.4633,1.4589,1.4549,1.4497,1.4457,1.4412,1.4368,1.4316,1.4301,1.4278,1.425,1.4202,1.4182,1.4203,1.4137,1.4136,1.4154,1.4145,1.4156,1.4134,1.4144,1.4143,1.4142,0,1.4841,1.4788,1.4719,1.4646,1.4625,1.459,1.4528,1.4486,1.4426,1.4398,1.4355,1.4321,1.427,1.4265,1.4194,1.421,1.4181,1.4153,1.4151,1.4142,1.4138,1.4135,1.4126,1.4122,1.4136,1.4136,1.4137,0,1.4861,1.4773,1.472,1.4691,1.4605,1.4581,1.4544,1.4484,1.4449,1.4395,1.4371,1.4312,1.428,1.4235,1.4185,1.4186,1.4118,1.411,1.4094,1.4095,1.408,1.4082,1.4065,1.4064,1.4064,1.4064,1.4064,0,1.4845,1.4804,1.4727,1.4695,1.4648,1.4594,1.4548,1.4508,1.4455,1.4413,1.4372,1.4333,1.427,1.4224,1.4185,1.4131,1.4117,1.4093,1.4083,1.4096,1.4099,1.4075,1.4075,1.4063,1.4063,1.4063,1.4063,0,1.4859,1.4806,1.4745,1.4669,1.4649,1.4617,1.4551,1.4518,1.4476,1.4424,1.4408,1.4343,1.4286,1.4232,1.4156,1.413,1.4076,1.4063,1.4096,1.409,1.4077,1.4078,1.4043,1.4036,1.4041,1.4041,1.4041,0,1.4852,1.4819,1.4739,1.4708,1.4672,1.4623,1.4587,1.4532,1.4496,1.4425,1.44,1.434,1.4289,1.4201,1.4146,1.4087,1.4072,1.4064,1.4063,1.4077,1.4071,1.4073,1.4069,1.4065,1.4065,1.4065,1.4066,0,1.4844,1.4819,1.4769,1.4709,1.4667,1.4617,1.4566,1.4543,1.4479,1.444,1.4382,1.4342,1.4265,1.4205,1.4141,1.4102,1.4073,1.4066,1.4059,1.4072,1.4092,1.408,1.4098,1.4067,1.4067,1.4067,1.4067,1.4067,1.4846,1.4815,1.4753,1.4698,1.4654,1.4607,1.4571,1.4525,1.4475,1.4407,1.4378,1.4319,1.4259,1.4169,1.4131,1.4083,1.4076,1.4066,1.4064,1.4062,1.4064,1.4101,1.4071,1.4071,1.4071,1.4071,1.4071,0,1.4835,1.4793,1.4743,1.4672,1.4629,1.4606,1.4547,1.4512,1.4461,1.4407,1.4358,1.429,1.4232,1.4173,1.4112,1.4085,1.407,1.4071,1.4072,1.4063,1.4074,1.4086,1.4084,1.4084,1.4084,1.4084,1.4084,1.4084,1.4824,1.4769,1.4737,1.466,1.4618,1.4559,1.4528,1.4484,1.4441,1.4367,1.4319,1.4281,1.4225,1.4159,1.4105,1.4089,1.4068,1.4072,1.4052,1.4063,1.4063,1.4062,1.4072,1.4068,1.4068,1.4045,1.4045,1.4045]},{"header":{"parameterUnit":"m.s-1","parameterCategory":1,"la1":30.2991,"la2":30.254,"lo1":-89.0895,"lo2":-89.0444,"dy":0.0017,"dx":0.0017,"nx":28,"ny":28,"refTime":"2025-04-07T09:00:00:Z","depth":0,"parameterNumber":3,"parameterNumberName":"V-component_of_WINDS"},"data":[0,0,0,0,0,0,0,0,0,0,0,0,0,0,0,0,0,0,0,0,0,0,0,0,0,0,0,0,0,0,0,0,0,0,0,0,0,0,0,0,0,0,0,0,0,0,0,0,0,0,0,0,0,0,0,0,0,0,-4.9151,-4.9155,0,-4.9449,-4.9453,-4.9456,-4.9429,-4.9424,-4.942,-4.9415,-4.9722,-4.9734,-4.9746,0,0,0,0,0,0,0,0,0,0,0,0,0,-4.8559,-4.857,-4.9151,-4.9155,-4.9159,-4.9449,-4.9453,-4.9457,-4.943,-4.9424,-4.9418,-4.9413,-4.9718,-4.9732,-4.9747,0,0,0,0,0,0,0,0,0,0,0,0,0,-4.8832,-4.8573,-4.9151,-4.918,-4.9185,-4.9448,-4.9453,-4.9458,-4.9431,-4.9424,-4.9417,-4.941,-4.9713,-4.9731,-4.9749,-5.0002,0,0,-4.9806,-4.9814,0,0,0,0,0,0,0,0,-4.8817,-4.8854,-4.9172,-4.9178,-4.9185,-4.9395,-4.9356,-4.9641,-4.9432,-4.9338,-4.9415,-4.9407,-4.9619,-4.9645,-4.9716,-5.0017,-5.003,-4.9808,-4.9819,-4.9827,-4.9833,0,0,0,0,0,0,0,-4.8798,-4.8841,-4.9269,-4.9176,-4.9185,-4.9178,-4.9209,-4.941,-4.9513,-4.9345,-4.9344,-4.938,-4.9621,-4.9698,-4.9723,-5.0034,-4.9808,-4.9824,-4.9836,-4.9843,-5.0557,-5.0564,0,0,0,0,0,0,-4.8772,-4.8825,-4.926,-4.9278,-4.898,-4.9194,-4.9229,-4.9334,-4.9511,-4.9531,-4.9385,-4.9377,-4.9669,-4.9701,-4.9733,-5.0041,-4.9827,-4.9845,-4.9855,-5.0549,-5.0558,-5.0567,0,0,0,0,0,0,-4.8759,-4.8811,-4.9248,-4.9052,-4.9107,-4.9212,-4.933,-4.9344,-4.9421,-4.9541,-4.9559,-4.9445,-4.9665,-4.9707,-4.9935,-5.0051,-4.9853,-4.987,-5.054,-5.0552,-5.0563,-5.0659,0,0,0,0,0,0,-4.8742,-4.8806,-4.8904,-4.9054,-4.9117,-4.9445,-4.9337,-4.9355,-4.9453,-4.9445,-4.9602,-4.9621,-4.9663,-4.9908,-4.9954,-5.0074,-4.9885,-5.053,-5.0545,-5.0559,-5.0646,-5.0672,-5.0695,0,0,0,0,0,-4.8721,-4.892,-4.8909,-4.8962,-4.9241,-4.9452,-4.9488,-4.9532,-4.9462,-4.9561,-4.9638,-4.9616,-5.0031,-4.9931,-4.9983,-5.011,-5.0523,-5.0541,-5.0558,-5.0635,-5.0667,-5.0694,0,0,0,0,0,0,-4.8782,-4.894,-4.893,-4.9183,-4.9304,-4.9447,-4.9573,-4.9565,-4.9709,-4.9696,-4.9744,-4.978,-5.001,-5.0082,-4.9969,-5.0363,-5.0267,-5.0296,-5.0308,-5.034,-5.0364,-5.0342,-4.99,0,0,0,0,0,-4.8824,-4.8982,-4.9111,-4.9322,-4.9383,-4.9468,-4.9561,-4.9584,-4.9712,-4.9763,-4.9857,-4.9982,-5.014,-5.0244,-5.0396,-5.0655,-5.0689,-5.0768,-5.0792,-5.0812,-5.0837,-5.0978,-5.1015,-5.0624,-5.0624,-5.0624,0,0,-4.8914,-4.902,-4.9117,-4.9337,-4.9434,-4.9596,-4.9511,-4.9687,-4.9808,-4.979,-5.0012,-5.0084,-5.0227,-5.0471,-5.0584,-5.0539,-5.0952,-5.0834,-5.0849,-5.0863,-5.1,-5.1037,-5.107,-5.0636,-5.0634,-5.0632,0,0,-4.9161,-4.9257,-4.9443,-4.9541,-4.9688,-4.9742,-4.9787,-4.9931,-4.9979,-5.0201,-5.0191,-5.0335,-5.0607,-5.0708,-5.0796,-5.1079,-5.1064,-5.1127,-5.1256,-5.1394,-5.1425,-5.1452,-5.1554,-5.159,-5.1151,-5.1151,-5.1151,0,-4.9255,-4.9499,-4.9539,-4.9717,-4.9814,-4.9803,-4.9992,-5.0085,-5.0275,-5.0342,-5.0288,-5.0628,-5.0724,-5.0992,-5.106,-5.1131,-5.1184,-5.1111,-5.1417,-5.1445,-5.1471,-5.1569,-5.1607,-5.1158,-5.1157,-5.1156,-5.1156,0,-4.9607,-4.9776,-4.9909,-5.0091,-5.0202,-5.0384,-5.0452,-5.056,-5.0572,-5.0632,-5.0858,-5.0972,-5.1146,-5.1211,-5.1226,-5.1482,-5.1449,-5.1406,-5.1311,-5.1515,-5.1607,-5.1644,-5.1167,-5.1165,-5.1163,-5.1161,0,0,-4.9904,-5.0104,-5.0152,-5.0234,-5.0394,-5.0526,-5.0707,-5.0877,-5.0969,-5.1099,-5.1252,-5.1481,-5.1441,-5.154,-5.1565,-5.1686,-5.1903,-5.1628,-5.1632,-5.1676,-5.2192,-5.2225,-5.2267,-5.1893,-5.19,-5.1906,-5.218,0,-5.0168,-5.0488,-5.0528,-5.0813,-5.0969,-5.096,-5.1118,-5.1233,-5.1293,-5.1434,-5.15,-5.1662,-5.1598,-5.1657,-5.1776,-5.1851,-5.2007,-5.1832,-5.2036,-5.2043,-5.2003,-5.2315,-5.2351,-5.2605,-5.2216,-5.2223,-5.2227,0,-5.052,-5.0659,-5.0958,-5.1096,-5.1163,-5.1304,-5.1462,-5.1597,-5.1727,-5.1762,-5.1872,-5.1881,-5.2067,-5.1962,-5.222,-5.2099,-5.2185,-5.2234,-5.2245,-5.2267,-5.2149,-5.2347,-5.2687,-5.2725,-5.2284,-5.228,-5.2275,0,-5.0707,-5.0969,-5.1182,-5.1252,-5.1418,-5.1517,-5.159,-5.1713,-5.1812,-5.195,-5.2015,-5.2173,-5.226,-5.2382,-5.2433,-5.2352,-5.2688,-5.2587,-5.2723,-5.2722,-5.2796,-5.2791,-5.3155,-5.2848,-5.2848,-5.2847,-5.2846,0,-5.0999,-5.1183,-5.1268,-5.14,-5.1605,-5.1649,-5.1851,-5.192,-5.2029,-5.2174,-5.2175,-5.231,-5.2369,-5.2514,-5.2554,-5.2761,-5.28,-5.2834,-5.2843,-5.2835,-5.2831,-5.2894,-5.2878,-5.2857,-5.2855,-5.2853,-5.2851,0,-5.1244,-5.1308,-5.154,-5.1677,-5.1715,-5.1861,-5.1978,-5.2105,-5.2162,-5.2344,-5.239,-5.248,-5.265,-5.2712,-5.292,-5.2947,-5.3187,-5.318,-5.3143,-5.3146,-5.3278,-5.3265,-5.3697,-5.3756,-5.3408,-5.3411,-5.3414,0,-5.1427,-5.1568,-5.1719,-5.1816,-5.1893,-5.2048,-5.2149,-5.2197,-5.2302,-5.2459,-5.2567,-5.2735,-5.2873,-5.3145,-5.3229,-5.3387,-5.3385,-5.3525,-5.3409,-5.3397,-5.3389,-5.3381,-5.3395,-5.3548,-5.3551,-5.3554,-5.3557,0,-5.1745,-5.177,-5.1915,-5.2071,-5.2191,-5.2317,-5.2439,-5.2518,-5.2583,-5.2701,-5.2874,-5.2981,-5.3191,-5.3359,-5.3521,-5.3596,-5.3589,-5.3592,-5.3632,-5.3627,-5.36,-5.3617,-5.3204,-5.3583,-5.358,-5.3578,-5.3577,-5.3576,-5.1967,-5.2091,-5.2217,-5.2378,-5.2474,-5.2588,-5.2713,-5.2785,-5.2931,-5.3106,-5.3124,-5.3311,-5.3435,-5.3651,-5.3733,-5.388,-5.3842,-5.3899,-5.3914,-5.3928,-5.3938,-5.3574,-5.3909,-5.3908,-5.3908,-5.3907,-5.3907,0,-5.2286,-5.2365,-5.2513,-5.2683,-5.281,-5.2789,-5.2922,-5.303,-5.3194,-5.331,-5.3445,-5.3644,-5.3806,-5.3901,-5.4064,-5.4162,-5.4163,-5.4203,-5.4198,-5.4215,-5.3963,-5.3912,-5.42,-5.42,-5.42,-5.42,-5.42,-5.42,-5.2467,-5.2677,-5.2716,-5.2973,-5.3052,-5.3234,-5.3312,-5.3416,-5.3509,-5.3731,-5.3865,-5.3926,-5.4034,-5.4204,-5.4351,-5.4375,-5.4435,-5.448,-5.45,-5.4263,-5.4233,-5.4204,-5.4157,-5.4492,-5.4492,-5.4741,-5.4743,-5.4745]}]]